Probability
0 0 0 0 0 0 0 0 0 0 0 0 0 0 0 0 0 0 0 0 0 0 0 0 0 1 1 1 0 0 1 2 1 0 0 1 2 2 3 3 3 3 3 3
0 0 0 0 0 0 0 0 0 0 0 0 0 0 0 0 0 0 0 0 0 0 0 0 0 0 0 0 0 0 1 2 1 0 0 0 1 1 2 3 3 3 3 3
0 0 0 0 0 0 0 0 0 0 0 0 0 0 0 0 0 0 0 0 0 0 0 0 0 0 0 0 0 0 1 2 1 0 0 0 0 0 1 1 2 2 2 2
0 0 0 0 0 0 0 0 0 0 0 0 0 0 0 0 0 0 0 0 0 0 0 0 0 0 0 0 0 0 1 2 2 1 0 0 0 0 0 0 1 1 1 1
0 0 0 0 0 0 0 0 0 0 0 0 0 0 0 0 0 0 0 0 0 0 0 0 0 0 0 0 0 0 1 2 2 1 0 0 0 0 0 0 0 0 0 0
0 0 0 0 0 0 0 0 0 0 0 0 0 0 0 0 0 0 0 0 0 0 0 0 0 0 0 0 0 0 0 1 1 1 0 0 0 0 0 0 0 0 0 0
0 0 0 0 0 0 0 0 0 0 0 0 0 0 0 0 0 0 0 0 0 0 0 0 0 0 0 0 0 0 0 0 0 0 0 0 0 0 0 0 0 0 0 0
0 0 0 0 0 0 0 0 0 0 0 0 0 0 0 0 0 0 0 0 0 0 0 0 0 0 0 0 0 0 0 0 0 0 0 0 0 0 0 0 0 0 0 0
0 0 0 0 0 0 0 0 0 0 0 0 0 0 0 0 0 0 0 0 0 0 0 0 0 0 0 0 0 0 0 0 0 0 0 0 0 0 0 0 0 0 0 0
0 0 0 0 0 0 0 0 0 0 0 0 0 0 0 0 0 0 0 0 0 0 0 0 0 0 0 0 0 0 0 0 0 0 0 0 0 0 0 0 0 0 0 0
0 0 0 0 0 0 0 0 0 0 0 0 0 0 0 0 0 0 0 0 0 0 0 0 0 0 0 0 0 0 0 0 0 0 0 0 0 0 0 0 0 0 0 0
0 0 0 0 0 0 0 0 0 0 0 0 0 0 0 0 0 0 0 0 0 0 0 0 0 0 0 0 0 0 0 0 0 0 0 0 0 0 0 0 0 0 0 0
0 0 0 0 0 0 0 0 0 0 0 0 0 0 0 0 0 0 0 0 0 0 0 0 0 0 0 0 0 0 0 0 0 0 0 0 0 0 0 0 0 0 0 0
0 0 0 0 0 0 0 0 0 0 0 0 0 0 0 0 0 0 0 0 0 0 0 0 0 0 0 0 0 0 0 0 0 0 0 0 0 0 0 0 0 0 0 0
0 0 0 0 0 0 0 0 0 0 0 0 0 0 0 0 0 0 0 0 0 0 0 0 0 0 0 0 0 0 0 0 0 0 0 0 0 0 0 0 0 0 0 0
0 0 0 0 0 0 0 0 0 0 0 0 0 0 0 0 0 0 0 0 0 0 0 0 0 0 0 0 0 0 0 0 0 0 0 0 0 0 0 0 0 0 0 0
0 0 0 0 0 0 0 0 0 0 0 0 0 0 0 0 0 0 0 0 0 0 0 0 0 0 0 0 0 0 0 0 0 0 0 0 0 0 0 0 0 0 0 0
0 0 0 0 0 0 0 0 0 0 0 0 0 0 0 0 0 0 0 0 0 0 0 0 0 0 0 0 0 0 0 0 0 0 0 0 0 0 0 0 0 0 0 0
0 0 0 0 0 0 0 0 0 0 0 0 0 0 0 0 0 0 0 0 0 0 0 0 0 0 0 0 0 0 0 0 0 0 0 0 0 0 0 0 0 0 0 0
0 0 0 0 0 0 0 0 0 0 0 0 0 0 0 0 0 0 0 0 0 0 0 0 0 0 0 0 0 0 0 0 0 0 0 0 0 0 0 0 0 0 0 0
0 0 0 0 0 0 0 0 0 0 0 0 0 0 0 0 0 0 0 0 0 0 0 0 0 0 0 0 0 0 0 0 0 0 0 0 0 0 0 0 0 0 0 0
0 0 0 0 0 0 0 0 0 0 0 0 0 0 0 0 0 0 0 0 0 0 0 0 0 0 0 0 0 0 0 0 0 0 0 0 0 0 0 0 0 0 0 0
0 0 0 0 0 0 0 0 0 0 0 0 0 0 0 0 0 0 0 0 0 0 0 0 0 0 0 0 0 0 0 0 0 0 0 0 0 0 0 0 0 0 0 0
0 0 0 0 0 0 0 0 0 0 0 0 0 0 0 0 0 0 0 0 0 0 0 0 0 0 0 0 0 0 0 0 0 0 0 0 0 0 0 0 0 0 0 0
0 0 0 0 0 0 0 0 0 0 0 0 0 0 0 0 0 0 0 0 0 0 0 0 0 0 0 0 0 0 0 0 0 0 0 0 0 0 0 0 0 0 0 0
0 0 0 0 0 0 0 0 0 0 0 0 0 0 0 0 0 0 0 0 0 0 0 0 0 0 0 0 0 0 0 0 0 0 0 0 0 0 0 0 0 0 0 0
Wind_Speed
2 3 6 9 9 6 4 4 6 6 4 4 8 11 11 7 6 7 8 7 8 9 7 5 5 5 5 6 6 6 6 5 5 3 3 3 3 2 2 2 3 3 2 2
1 7 10 5 5 5 5 6 7 5 3 4 6 11 10 8 9 9 10 10 9 7 5 5 5 5 6 6 6 6 7 6 6 5 4 3 3 2 2 2 2 3 3 3
8 6 4 6 5 6 8 7 7 5 4 2 3 8 7 6 5 6 7 8 8 9 9 8 6 6 6 6 7 6 7 7 6 5 3 3 2 2 1 1 1 2 2 2
6 5 4 5 6 7 8 7 6 4 2 4 2 6 8 5 6 7 8 7 8 8 8 7 7 7 7 7 6 6 6 6 6 6 5 5 4 3 3 2 2 2 2 2
5 3 4 7 8 7 6 4 3 3 3 3 3 4 10 3 6 9 9 9 9 8 8 8 8 8 6 5 5 5 5 5 5 6 6 6 4 3 2 2 2 2 1 2
5 4 4 5 4 4 3 2 2 1 2 5 7 7 9 6 9 7 7 8 8 7 7 7 6 5 4 4 4 4 5 4 4 5 5 6 6 4 4 3 3 2 1 2
4 4 4 3 2 1 3 4 1 2 2 7 4 6 11 8 8 8 8 7 7 6 7 6 6 6 5 5 5 5 5 5 5 5 5 6 6 6 6 5 4 3 2 2
3 5 4 3 5 6 5 7 7 6 6 5 2 8 9 6 5 4 5 5 5 5 6 6 7 6 6 6 6 5 6 5 5 5 5 5 5 4 4 4 4 4 3 3
4 5 2 2 2 6 5 5 5 4 2 3 6 7 8 2 1 1 2 3 4 6 6 6 5 5 6 6 6 6 6 5 5 5 4 4 4 4 4 4 3 3 3 2
3 3 4 2 1 1 4 5 3 4 4 5 6 5 6 4 4 2 2 3 4 4 4 4 5 5 5 5 4 5 5 5 4 4 4 4 4 4 4 3 4 4 4 3
2 3 3 1 4 6 4 3 3 3 4 5 4 7 5 6 5 4 4 3 4 4 4 4 3 3 4 3 4 4 4 4 4 4 4 3 3 3 3 3 4 4 4 4
2 2 3 5 4 3 5 6 6 5 5 4 4 8 3 2 3 3 3 3 4 4 4 4 3 3 3 4 4 4 4 4 4 4 4 4 3 3 3 3 4 4 4 4
3 3 0 3 2 1 2 3 3 2 2 4 5 8 3 2 2 1 2 2 3 3 3 2 3 3 4 4 3 3 4 4 4 4 4 3 3 3 3 3 3 3 3 3
2 4 6 8 6 4 4 5 5 4 4 5 9 9 7 5 5 4 3 2 3 3 3 3 3 3 4 4 4 3 3 3 3 4 4 4 3 3 3 3 3 3 3 4
3 4 5 7 6 5 7 9 9 9 9 9 9 10 12 8 6 5 4 3 3 3 4 4 4 4 4 3 3 3 3 3 4 3 3 3 3 2 2 2 2 2 2 3
3 3 2 5 5 6 9 11 12 12 10 11 10 13 10 6 4 4 5 5 5 5 6 5 5 5 5 5 4 3 3 4 4 4 3 3 2 2 2 2 2 1 1 1
4 4 2 4 3 2 9 11 12 9 8 9 13 13 6 4 5 6 6 6 6 6 6 6 6 6 6 5 5 5 4 3 4 4 3 3 3 2 2 2 2 2 2 1
6 4 3 2 1 8 9 3 8 8 9 10 9 7 6 7 6 5 5 6 7 6 6 5 5 5 4 4 4 4 3 4 4 4 3 3 3 3 2 2 2 2 1 2
6 5 3 3 4 9 8 3 5 6 8 8 9 9 7 4 2 5 5 5 6 6 5 5 5 4 4 4 4 4 3 3 4 4 4 4 4 3 3 3 2 2 2 2
3 4 4 3 4 7 6 2 2 3 6 5 6 7 5 2 3 6 4 3 4 4 4 4 3 3 3 3 4 4 4 4 5 5 5 4 4 4 4 3 3 2 2 2
4 3 5 5 6 9 6 1 3 4 7 3 4 5 5 6 7 5 3 3 4 4 4 3 3 3 4 4 5 5 4 6 5 4 3 3 4 4 4 3 2 2 2 1
7 6 6 5 5 10 3 4 6 7 3 2 3 4 4 4 4 3 3 3 3 3 2 3 3 3 3 3 5 5 5 5 3 4 4 3 3 3 3 3 2 2 2 2
7 8 6 9 9 5 4 6 6 4 4 4 3 3 3 4 4 3 2 2 2 2 2 2 3 3 2 3 4 5 4 3 4 4 4 3 3 3 3 3 3 2 2 2
5 3 3 5 8 6 6 5 5 4 5 5 5 4 4 4 4 4 3 2 2 2 2 2 3 3 3 3 4 5 4 4 4 4 4 3 3 3 3 3 3 3 3 3
6 5 4 7 8 6 5 5 6 5 4 4 3 3 4 4 4 4 3 3 3 2 2 2 3 4 4 3 3 4 4 5 4 4 4 3 3 3 3 3 3 4 4 4
6 7 7 8 7 6 7 5 4 4 5 4 3 3 2 3 4 3 3 3 3 3 3 3 3 3 3 3 3 3 4 5 5 4 4 3 3 3 2 2 2 4 4 5
Wind_Direction
167 147 208 211 207 209 195 213 237 244 245 221 239 256 261 248 236 231 229 223 217 219 216 198 191 184 176 179 178 179 176 173 160 155 159 163 176 174 178 187 178 179 178 173
103 234 231 218 215 223 229 241 259 274 274 236 253 265 263 242 228 222 219 216 211 210 209 203 189 182 181 181 182 181 181 176 173 174 176 170 161 171 185 188 181 184 182 180
207 237 214 203 215 220 232 226 242 258 306 309 298 289 265 258 236 233 223 212 207 202 203 200 192 187 183 185 186 186 183 177 175 167 149 126 101 90 120 193 195 193 183 182
239 254 230 217 225 210 238 228 226 238 247 267 198 275 271 250 248 235 229 216 212 211 202 195 190 188 189 192 186 182 177 173 171 163 162 162 167 179 196 192 196 196 188 186
240 240 219 227 229 207 222 210 206 218 210 264 231 240 273 252 247 240 230 220 214 210 197 194 192 192 189 181 177 178 170 168 170 170 171 171 177 185 177 168 176 191 196 191
247 253 224 223 230 202 173 96 50 55 117 250 222 207 268 229 224 231 226 216 212 203 193 190 187 180 180 171 168 167 167 174 175 174 176 177 178 176 170 181 188 197 205 205
272 256 239 188 151 167 141 124 44 324 247 245 209 208 248 242 229 219 218 215 210 196 184 181 177 177 178 175 176 172 171 177 179 176 180 184 184 181 186 190 193 194 198 210
225 259 230 204 192 189 194 170 179 204 221 268 246 231 251 259 245 223 211 201 192 187 184 181 182 181 181 180 178 176 177 181 182 181 185 185 184 184 192 194 193 200 204 207
200 249 267 241 211 168 172 205 197 164 207 252 253 269 294 279 260 203 187 175 189 190 188 184 180 180 179 180 183 183 181 183 187 185 180 180 184 189 196 196 195 202 202 198
171 252 268 267 108 209 171 162 141 165 191 242 266 251 240 242 233 222 206 207 205 188 184 185 182 182 182 180 179 179 180 184 187 181 182 183 189 194 194 189 199 205 203 198
157 194 270 257 205 199 170 176 184 182 188 187 249 262 227 211 205 201 212 211 198 193 194 191 187 182 173 166 169 178 183 180 183 186 184 180 188 189 187 197 207 207 203 199
173 159 238 245 260 231 201 200 179 187 225 201 216 264 270 219 225 193 209 214 209 200 192 182 175 171 172 175 178 183 186 186 190 186 180 183 185 184 190 209 216 205 203 205
161 152 311 323 308 290 230 209 192 175 170 194 211 259 313 350 332 265 215 218 217 201 190 181 176 180 186 189 188 187 189 192 187 174 174 180 185 188 201 215 217 204 202 208
166 184 198 215 227 196 232 238 205 179 207 225 231 254 284 292 293 292 274 240 226 198 186 187 192 194 195 194 192 190 197 189 179 172 175 187 195 198 207 212 211 206 201 205
156 214 230 246 248 229 233 233 221 219 216 218 239 245 257 252 246 255 259 249 231 208 197 195 197 201 199 197 197 191 192 187 177 175 185 198 197 193 191 199 210 209 204 211
163 207 238 270 256 251 258 245 230 232 231 236 250 261 259 258 240 244 243 230 219 218 213 210 205 203 203 201 200 194 194 188 172 177 191 187 180 182 190 199 200 199 210 218
181 175 194 259 276 307 261 230 214 218 217 208 231 244 255 258 242 230 230 227 223 227 222 214 212 209 207 204 197 196 198 181 172 178 183 182 179 187 204 209 202 211 222 229
173 172 190 211 130 235 245 209 197 211 233 222 233 245 239 240 249 256 241 222 224 225 221 217 211 211 209 199 194 190 179 175 180 184 191 191 185 194 203 203 213 223 223 227
179 167 175 178 219 267 283 240 183 196 252 228 228 245 252 250 296 287 258 218 220 222 217 211 203 201 195 193 185 170 177 179 184 194 198 198 192 195 200 208 219 220 217 238
164 161 166 183 205 239 253 246 189 135 269 250 213 231 244 195 253 262 248 219 222 223 214 203 190 177 183 192 170 168 184 186 200 203 203 196 191 194 201 209 217 219 217 226
179 187 196 206 231 258 257 237 119 174 249 259 215 227 224 216 231 246 244 236 222 219 210 194 182 190 200 184 164 178 193 206 207 195 190 191 192 197 199 201 205 204 217 231
187 187 198 183 217 253 227 145 187 227 266 264 247 237 234 241 249 257 250 236 217 207 203 188 186 205 203 181 170 187 210 209 184 179 186 192 193 195 189 190 204 200 198 216
208 199 194 199 220 245 210 213 231 236 255 258 244 248 230 243 244 247 254 243 225 210 207 194 183 196 206 194 183 198 213 182 172 177 189 193 191 194 189 192 200 203 201 209
245 210 204 246 258 257 254 257 258 245 245 257 253 244 230 234 238 238 235 240 240 226 214 195 175 191 218 213 204 206 195 176 176 185 193 191 189 194 195 201 203 205 208 214
220 188 214 248 264 284 268 246 253 264 267 264 262 252 235 225 236 227 230 230 227 229 225 202 199 207 219 210 211 206 187 173 181 189 193 195 197 196 201 210 214 217 219 218
210 195 203 234 232 228 256 257 251 252 254 248 244 261 251 221 231 236 236 233 223 221 217 210 210 211 216 203 210 209 192 180 181 191 194 195 196 198 203 210 242 245 242 246